Location: Unspecified
(0.0000°N, 0.0000°E)
Time: 12:20:24
(UTC+00:00)

Courier 1B Rocket - All Passes

Search period start: 23 February 2018 00:00
Search period end: 05 March 2018 00:00
Orbit: 920 x 1202 km, 28.2° (Epoch: 22 February)

Date Brightness Start Highest point End Pass type
(mag) Time Alt. Az. Time Alt. Az. Time Alt. Az.
23 Feb - 02:39:47 10° S 02:42:34 12° SSE 02:45:16 10° SE visible
23 Feb - 04:30:38 10° SW 04:36:50 40° SSE 04:42:43 10° E visible
23 Feb - 06:24:03 10° WSW 06:30:18 54° NNW 06:36:21 10° NE daylight
23 Feb - 08:20:46 10° WNW 08:24:03 14° NNW 08:27:20 10° N daylight
23 Feb - 14:09:03 10° N 14:10:50 11° NNE 14:12:38 10° NE daylight
23 Feb - 15:58:40 10° NW 16:05:13 36° NNE 16:12:07 10° E daylight
23 Feb - 17:51:33 10° WNW 17:59:04 72° SSW 18:06:54 10° SE daylight
23 Feb - 19:47:16 10° WSW 19:53:16 24° SSW 19:59:19 10° SSE visible
24 Feb - 03:29:57 10° SSW 03:35:39 27° SSE 03:41:03 10° E visible
24 Feb - 05:22:41 10° WSW 05:29:18 84° NNW 05:35:36 10° ENE visible
24 Feb - 07:18:04 10° WNW 07:22:49 22° NNW 07:27:31 10° NNE daylight
24 Feb - 14:58:21 10° NNW 15:03:54 24° NNE 15:09:43 10° E daylight
24 Feb - 16:50:25 10° NW 16:57:46 80° NNE 17:05:34 10° ESE daylight
24 Feb - 18:45:01 10° W 18:51:45 34° SSW 18:58:41 10° SE visible
24 Feb - 20:44:00 10° SW 20:46:37 12° SSW 20:49:15 10° S visible
25 Feb - 02:29:28 10° SSW 02:34:19 19° SSE 02:38:56 10° ESE visible
25 Feb - 04:21:32 10° SW 04:28:17 64° SSE 04:34:36 10° ENE visible
25 Feb - 06:15:57 10° W 06:21:43 34° NNW 06:27:18 10° NE daylight
25 Feb - 13:58:29 10° N 14:02:32 16° NNE 14:06:43 10° ENE daylight
25 Feb - 15:49:35 10° NW 15:56:31 54° NNE 16:03:56 10° ESE daylight
25 Feb - 17:43:14 10° WNW 17:50:21 48° SSW 17:57:49 10° SE daylight
25 Feb - 19:40:15 10° WSW 19:44:52 17° SSW 19:49:32 10° SSE visible
26 Feb - 01:29:15 10° S 01:32:47 14° SSE 01:36:12 10° SE night (unlit)
26 Feb - 03:20:34 10° SW 03:27:09 42° SSE 03:33:19 10° E visible
26 Feb - 05:14:11 10° WSW 05:20:41 53° NNW 05:26:50 10° NE visible
26 Feb - 07:11:12 10° NW 07:14:26 14° NNW 07:17:39 10° N daylight
26 Feb - 13:00:16 10° NNE 13:01:03 10° NNE 13:01:52 10° NNE daylight
26 Feb - 14:49:03 10° NW 14:55:17 36° NNE 15:01:57 10° E daylight
26 Feb - 16:41:50 10° WNW 16:49:02 70° SSW 16:56:43 10° SE daylight
26 Feb - 18:37:29 10° WSW 18:43:14 23° SSW 18:49:10 10° SSE visible
27 Feb - 00:30:24 10° S 00:31:05 10° SSE 00:31:47 10° SSE night (unlit)
27 Feb - 02:19:46 10° SSW 02:25:54 29° SSE 02:31:40 10° E visible
27 Feb - 04:12:43 10° WSW 04:19:39 82° NNW 04:26:08 10° ENE visible
27 Feb - 06:08:19 10° WNW 06:13:13 22° NNW 06:17:57 10° NNE daylight
27 Feb - 13:48:50 10° NNW 13:54:04 24° NNE 13:59:34 10° E daylight
27 Feb - 15:40:47 10° WNW 15:47:48 81° NNE 15:55:22 10° ESE daylight
27 Feb - 17:35:18 10° W 17:41:44 32° SSW 17:48:30 10° SE daylight
27 Feb - 19:34:17 10° SW 19:36:38 11° SSW 19:39:01 10° S visible
28 Feb - 01:19:09 10° SSW 01:24:30 21° SSE 01:29:36 10° ESE night (unlit)
28 Feb - 03:11:27 10° SW 03:18:34 67° SSE 03:25:09 10° ENE visible
28 Feb - 05:06:04 10° W 05:12:05 34° NNW 05:17:48 10° NE visible
28 Feb - 12:49:03 10° N 12:52:46 15° NNE 12:56:35 10° ENE daylight
28 Feb - 14:40:01 10° NW 14:46:37 54° NNE 14:53:45 10° ESE daylight
28 Feb - 16:33:35 10° W 16:40:21 46° SSW 16:47:35 10° SE daylight
28 Feb - 18:30:35 10° SW 18:34:52 16° SSW 18:39:16 10° SSE visible
01 Mar - 00:18:48 10° SSW 00:22:55 15° SSE 00:26:56 10° SE night (unlit)
01 Mar - 02:10:23 10° SW 02:17:22 45° SSE 02:23:52 10° E visible
01 Mar - 04:04:11 10° WSW 04:11:00 52° NNW 04:17:21 10° NE visible
01 Mar - 06:01:24 10° WNW 06:04:48 14° NNW 06:08:09 10° N daylight
01 Mar - 13:39:32 10° NW 13:45:29 35° NNE 13:51:49 10° E daylight
01 Mar - 15:32:15 10° WNW 15:39:06 67° SSW 15:46:30 10° SE daylight
01 Mar - 17:27:51 10° WSW 17:33:15 22° SSW 17:38:53 10° SSE daylight
01 Mar - 23:19:07 10° S 23:21:11 11° SSE 23:23:15 10° SSE night (unlit)
02 Mar - 01:09:31 10° SSW 01:16:03 31° SSE 01:22:13 10° E night (unlit)
02 Mar - 03:02:36 10° WSW 03:09:55 80° NNW 03:16:39 10° ENE visible
02 Mar - 04:58:24 10° WNW 05:03:33 22° NNW 05:08:29 10° NNE visible
02 Mar - 12:39:21 10° NNW 12:44:19 23° NNE 12:49:31 10° ENE daylight
02 Mar - 14:31:15 10° WNW 14:37:56 83° NNE 14:45:12 10° ESE daylight
02 Mar - 16:25:44 10° W 16:31:48 30° SSW 16:38:14 10° SSE daylight
02 Mar - 18:25:01 10° SSW 18:26:41 11° SSW 18:28:21 10° S daylight
03 Mar - 00:08:50 10° SSW 00:14:36 23° SSE 00:20:07 10° ESE night (unlit)
03 Mar - 02:01:17 10° SW 02:08:44 70° SSE 02:15:39 10° ENE night (unlit)
03 Mar - 03:56:02 10° W 04:02:22 34° NNW 04:08:19 10° NE visible
03 Mar - 11:39:38 10° N 11:43:05 15° NNE 11:46:36 10° ENE daylight
03 Mar - 13:30:31 10° NW 13:36:50 54° NNE 13:43:38 10° ESE daylight
03 Mar - 15:24:03 10° W 15:30:28 43° SSW 15:37:22 10° SE daylight
03 Mar - 17:21:07 10° SW 17:24:57 15° SSW 17:28:52 10° SSE daylight
03 Mar - 23:08:25 10° SSW 23:12:59 16° SSE 23:17:27 10° ESE night (unlit)
04 Mar - 01:00:10 10° SW 01:07:28 47° SSE 01:14:19 10° E night (unlit)
04 Mar - 02:54:04 10° WSW 03:01:13 52° NNW 03:07:51 10° NE visible
04 Mar - 04:51:23 10° WNW 04:55:07 15° NNW 04:58:44 10° N visible
04 Mar - 12:30:02 10° NW 12:35:46 35° NNE 12:41:49 10° E daylight
04 Mar - 14:22:45 10° WNW 14:29:17 64° SSW 14:36:20 10° SE daylight
04 Mar - 16:18:24 10° WSW 16:23:22 20° SSW 16:28:34 10° SSE daylight
04 Mar - 22:08:35 10° S 22:11:13 12° SSE 22:13:51 10° SE visible
